Home   Weather   Salto   Past weeks
Flag for Uruguay

Past Weather in Salto, Uruguay — Yesterday and Last 2 Weeks

Now
63 °F

Overcast.


Feels Like: 63 °F
Forecast: 71 / 54 °F
Wind: 8 mph from South

Location: Sauce Viejo Aerodrome

Current Time: Apr 22, 2019 at 1:59:32 am

Latest Report: Apr 22, 2019 at 12:00 am


Visibility: 7 mi

Pressure: 30.06 "Hg

Humidity: 67%

Dew Point: 51 °F

Location of SaltoLocation

Past Weather in Salto — Graph

°F

Salto Temperature Yesterday

Maximum temperature yesterday: 69 °F (at 11:00 am)
Minimum temperature yesterday: 59 °F (at 8:00 am)
Average temperature yesterday: 64 °F

High & Low Weather Summary for the Past Weeks

 TemperatureHumidityPressure
High86 °F (Apr 14, 3:00 pm)98% (Apr 17, 8:00 am)30.24 "Hg (Apr 17, 8:00 am)
Low46 °F (Apr 12, 3:00 am)36% (Apr 7, 3:00 pm)29.79 "Hg (Apr 13, 6:00 pm)
Average67 °F75%29.98 "Hg
* Reported Apr 7 12:00 am — Apr 22 12:00 am, Salto. Weather by CustomWeather, © 2019

Note: Actual official high and low records may vary slightly from our data, if they occured in-between our weather recording intervals... More about our weather records

Advertising

Salto Weather History for the Previous 24 Hours

Scroll right to see more
 ConditionsComfort  
Time TempWeatherWind HumidityBarometerVisibility
12:00 am
Mon, Apr 22
63 °FOvercast.8 mph67%30.06 "Hg7 mi
11:00 pm
Sun, Apr 21
63 °FOvercast.9 mph69%30.05 "Hg7 mi
10:00 pm63 °FPassing clouds.10 mph74%30.03 "Hg7 mi
9:00 pm63 °FOvercast.9 mph78%30.03 "Hg7 mi
8:00 pm64 °FOvercast.7 mph76%30.02 "Hg7 mi
7:00 pm66 °FOvercast.6 mph66%30.00 "Hg7 mi
6:00 pm67 °FOvercast.7 mph61%30.00 "Hg7 mi
5:00 pm67 °FOvercast.9 mph60%29.99 "Hg7 mi
4:00 pm69 °FOvercast.7 mph56%30.00 "Hg7 mi
3:00 pm68 °FOvercast.12 mph57%29.98 "Hg7 mi
2:00 pm69 °FOvercast.9 mph59%30.00 "Hg7 mi
1:00 pm68 °FPartly sunny.12 mph56%30.03 "Hg7 mi
12:00 pm69 °FScattered clouds.13 mph58%30.05 "Hg7 mi
11:00 am69 °FScattered clouds.12 mph58%30.05 "Hg7 mi
10:00 am65 °FPassing clouds.10 mph64%30.06 "Hg7 mi
9:00 am62 °FSunny.10 mph75%30.02 "Hg7 mi
8:00 am59 °FPassing clouds.6 mph79%29.99 "Hg7 mi
7:00 am60 °FPassing clouds.8 mph76%29.97 "Hg7 mi
6:00 am61 °FPassing clouds.8 mph76%29.96 "Hg7 mi
5:00 am61 °FPassing clouds.8 mph77%29.96 "Hg7 mi
4:00 am62 °FPassing clouds.6 mph73%29.97 "Hg7 mi
3:00 am63 °FPassing clouds.8 mph69%29.97 "Hg7 mi
2:00 am63 °FPassing clouds.8 mph69%29.97 "Hg7 mi
1:00 am63 °FPassing clouds.8 mph71%29.97 "Hg7 mi
Weather by CustomWeather, © 2019

See weather overview